Change the Weather History Date:

Monday, April 22, 2013

  Actual Average Record
Temperature  
Mean Temperature 58 °F -  
Max Temperature 70 °F 69 °F 89 °F (1955)
Min Temperature 48 °F 48 °F 28 °F (1986)
Degree Days  
Heating Degree Days 7    
Growing Degree Days 8 (Base 50)    
Moisture  
Dew Point 44 °F    
Average Humidity 58    
Maximum Humidity 89    
Minimum Humidity 40    
Precipitation  
Precipitation 0.13 in - - ()
Sea Level Pressure  
Sea Level Pressure 30.00 in    
Wind  
Wind Speed 7 mph (SE)    
Max Wind Speed 16 mph    
Max Gust Speed 24 mph    
Visibility 9 miles    
Events Rain , Thunderstorm    
Averages and records for this station are not official NWS values.
T = Trace of Precipitation, MM = Missing Value Source: NWS Daily Summary

Daily Weather History Graph

Daily Weather History Graph

Search for Another Location

Airport or City:

Trip Planner

Search our weather history database for the weather conditions in past years. The results will help you decide how hot, cold, wet, or windy it might be!

Date:

Astronomy

Apr. 22, 2013 Rise Set
Actual Time 6:37 AM CDT 8:03 PM CDT
Civil Twilight 6:10 AM CDT 8:31 PM CDT
Nautical Twilight 5:37 AM CDT 9:04 PM CDT
Astronomical Twilight 5:03 AM CDT 9:38 PM CDT
Moon 4:57 PM CDT (4/22) 4:28 AM CDT (4/22)
Length of Visible Light 14h 20m
Length of Day
13h 26m
Waxing Gibbous, 88% of the Moon is Illuminated
Apr 22
Waxing Gibbous
Apr 25
Full
May 2
Last Quarter
May 9
New
May 17
First Quarter

Hourly Weather History & Observations

Time (CDT) Temp. Dew Point Humidity Pressure Visibility Wind Dir Wind Speed Gust Speed Precip Events Conditions
12:52 AM 55.0 °F 41.0 °F 59% 30.14 in 10.0 mi SSE 8.1 mph - N/A   Clear
1:52 AM 53.1 °F 39.0 °F 59% 30.12 in 10.0 mi SSE 3.5 mph - N/A   Clear
2:52 AM 51.1 °F 39.0 °F 63% 30.10 in 10.0 mi SSE 4.6 mph - N/A   Clear
3:52 AM 50.0 °F 37.9 °F 63% 30.10 in 10.0 mi SE 3.5 mph - N/A   Clear
4:52 AM 50.0 °F 39.0 °F 66% 30.10 in 10.0 mi SE 4.6 mph - N/A   Clear
5:52 AM 50.0 °F 39.0 °F 66% 30.11 in 10.0 mi SSE 3.5 mph - N/A   Clear
6:52 AM 48.9 °F 39.0 °F 69% 30.11 in 10.0 mi SE 3.5 mph - N/A   Clear
7:52 AM 52.0 °F 39.9 °F 63% 30.11 in 10.0 mi SSE 6.9 mph - N/A   Clear
8:52 AM 54.0 °F 41.0 °F 62% 30.09 in 10.0 mi SSE 6.9 mph - N/A   Clear
9:52 AM 60.1 °F 42.1 °F 51% 30.09 in 10.0 mi SSE 10.4 mph 17.3 mph N/A   Clear
10:52 AM 64.0 °F 42.1 °F 45% 30.07 in 10.0 mi SSE 11.5 mph 21.9 mph N/A   Clear
11:52 AM 66.9 °F 42.1 °F 40% 30.03 in 10.0 mi South 16.1 mph 24.2 mph N/A   Clear
12:52 PM 66.0 °F 43.0 °F 43% 29.98 in 10.0 mi SSE 9.2 mph 23.0 mph N/A   Clear
1:52 PM 68.0 °F 45.0 °F 43% 29.94 in 10.0 mi South 16.1 mph 21.9 mph N/A   Mostly Cloudy
2:52 PM 68.0 °F 44.1 °F 42% 29.92 in 10.0 mi South 11.5 mph 21.9 mph N/A   Overcast
3:52 PM 66.9 °F 44.1 °F 44% 29.94 in 10.0 mi South 5.8 mph - N/A   Overcast
4:52 PM 68.0 °F 45.0 °F 43% 29.90 in 10.0 mi SSE 6.9 mph - N/A   Overcast
5:52 PM 68.0 °F 45.0 °F 43% 29.90 in 10.0 mi ESE 4.6 mph - N/A   Mostly Cloudy
6:52 PM 68.0 °F 46.9 °F 47% 29.88 in 10.0 mi ESE 3.5 mph - N/A   Clear
7:52 PM 64.9 °F 46.9 °F 52% 29.87 in 10.0 mi Calm Calm - N/A   Clear
8:52 PM 64.0 °F 46.9 °F 54% 29.89 in 10.0 mi East 3.5 mph - N/A   Mostly Cloudy
9:40 PM 62.6 °F 46.4 °F 55% 29.88 in 10.0 mi Variable 6.9 mph - N/A Thunderstorm Overcast
9:52 PM 61.0 °F 48.0 °F 62% 29.89 in 10.0 mi NE 6.9 mph - 0.00 in Rain , Thunderstorm Light Rain
10:52 PM 55.9 °F 52.0 °F 87% 29.97 in 5.0 mi ENE 3.5 mph - 0.13 in Rain , Thunderstorm Rain
11:09 PM 55.4 °F 51.8 °F 88% 29.96 in 5.0 mi NE 4.6 mph - N/A Rain Rain
11:52 PM 55.0 °F 52.0 °F 89% 29.93 in 4.0 mi ENE 6.9 mph - N/A Rain Rain